Northolt, United Kingdom

6:03 PM BST on August 20, 2017 (GMT +0100)
Northolt Air Base

Weather History for EGWU - December, 2013

Change the Weather History Date:

Thursday, December 19, 2013

  Actual Average Record
Temperature  
Mean Temperature 42 °F -  
Max Temperature 48 °F 44 °F 62 °F (2015)
Min Temperature 37 °F 35 °F 17 °F (2010)
Degree Days  
Heating Degree Days 22    
Moisture  
Dew Point 37 °F    
Average Humidity 76    
Maximum Humidity 93    
Minimum Humidity 45    
Precipitation  
Precipitation 0.16 in - - ()
Sea Level Pressure  
Sea Level Pressure 29.60 in    
Wind  
Wind Speed 9 mph ()    
Max Wind Speed 20 mph    
Max Gust Speed 31 mph    
Visibility 11.3 miles    
Events Rain    
Averages and records for this station are not official NWS values.
T = Trace of Precipitation, MM = Missing Value Source: Averaged Metar Reports

Daily Weather History Graph

Daily Weather History Graph

Search for Another Location

Airport or City:

Trip Planner

Search our weather history database for the weather conditions in past years. The results will help you decide how hot, cold, wet, or windy it might be!

Date:

Astronomy

Dec. 19, 2013 Rise Set
Actual Time 8:04 AM GMT 3:53 PM GMT
Civil Twilight 7:23 AM GMT 4:33 PM GMT
Nautical Twilight 6:40 AM GMT 5:17 PM GMT
Astronomical Twilight 5:59 AM GMT 5:58 PM GMT
Moon 6:20 PM GMT (12/19) 9:00 AM GMT (12/19)
Length of Visible Light 9h 10m
Length of Day
7h 49m
Waning Gibbous, 96% of the Moon is Illuminated
Dec 19
Waning Gibbous
Dec 25
Last Quarter
Jan 1
New
Jan 8
First Quarter
Jan 16
Full

Hourly Weather History & Observations

Time (GMT) Temp. Windchill Dew Point Humidity Pressure Visibility Wind Dir Wind Speed Gust Speed Precip Events Conditions
12:00 AM 49 °F - 45 °F 81% 29.33 in 18 mi SW 9.2 mph - -   Scattered Clouds
12:50 AM 46.4 °F 39.5 °F 42.8 °F 87% 29.33 in 6.2 mi WSW 17.3 mph 31.1 mph N/A   Scattered Clouds
1:00 AM 47 °F - 43 °F 80% 29.35 in 8 mi WSW 17.3 mph - -   Scattered Clouds
1:50 AM 44.6 °F 39.2 °F 41.0 °F 87% 29.36 in 6.2 mi West 10.4 mph - N/A   Unknown
2:00 AM 45 °F - 41 °F 82% 29.37 in 18 mi West 10.4 mph - -  
2:50 AM 44.6 °F 39.7 °F 41.0 °F 87% 29.39 in 6.2 mi WSW 9.2 mph - N/A   Unknown
3:00 AM 44 °F - 41 °F 83% 29.40 in 16 mi WSW 9.2 mph - -  
3:50 AM 44.6 °F 40.2 °F 39.2 °F 81% 29.42 in 6.2 mi WSW 8.1 mph - N/A   Mostly Cloudy
4:00 AM 44 °F - 39 °F 77% 29.43 in 19 mi WSW 8.1 mph - -   Mostly Cloudy
4:50 AM 42.8 °F 37.5 °F 37.4 °F 81% 29.44 in 6.2 mi West 9.2 mph - N/A   Partly Cloudy
5:00 AM 43 °F - 37 °F 73% 29.45 in 22 mi West 9.2 mph - -   Scattered Clouds
5:50 AM 41.0 °F 36.4 °F 37.4 °F 87% 29.47 in - WSW 6.9 mph - N/A   Clear
6:00 AM 41 °F - 36 °F 78% 29.48 in 25 mi WSW 6.9 mph - -   Scattered Clouds
6:50 AM 41.0 °F 35.8 °F 35.6 °F 81% 29.50 in - West 8.1 mph - N/A   Clear
7:00 AM 41 °F - 36 °F 76% 29.52 in 25 mi West 8.1 mph - -   Scattered Clouds
7:50 AM 39.2 °F 33.6 °F 35.6 °F 87% 29.53 in - WSW 8.1 mph - N/A   Clear
8:00 AM 40 °F - 35 °F 77% 29.56 in 25 mi WSW 8.1 mph - -   Scattered Clouds
8:50 AM 41.0 °F 35.8 °F 35.6 °F 81% 29.56 in - WSW 8.1 mph - N/A   Clear
9:00 AM 40 °F - 35 °F 76% 29.59 in 19 mi WSW 8.1 mph - -   Scattered Clouds
9:50 AM 41.0 °F 35.8 °F 33.8 °F 76% 29.62 in - WSW 8.1 mph - N/A   Clear
10:00 AM 41 °F - 35 °F 70% 29.63 in 22 mi WSW 8.1 mph - -   Scattered Clouds
10:50 AM 44.6 °F 43.1 °F 35.6 °F 71% 29.62 in - SW 3.5 mph - N/A   Clear
11:00 AM 44 °F - 36 °F 65% 29.64 in 19 mi SW 3.5 mph - -   Clear
11:50 AM 46.4 °F 42.4 °F 35.6 °F 66% 29.62 in - WSW 8.1 mph - N/A   Clear
12:00 PM 47 °F - 36 °F 54% 29.65 in 22 mi WSW 8.1 mph - -   Scattered Clouds
12:50 PM 48.2 °F - 33.8 °F 58% 29.62 in - WSW 12.7 mph - N/A   Clear
1:00 PM 47 °F - 33 °F 47% 29.65 in 22 mi WSW 12.7 mph - -   Scattered Clouds
1:50 PM 48.2 °F - 33.8 °F 58% 29.62 in - SW 9.2 mph - N/A   Clear
2:00 PM 48 °F - 33 °F 45% 29.64 in 25 mi SW 9.2 mph - -   Scattered Clouds
2:50 PM 46.4 °F 42.4 °F 33.8 °F 62% 29.65 in - SW 8.1 mph - N/A   Clear
3:00 PM 47 °F - 34 °F 49% 29.65 in 19 mi SW 8.1 mph - -   Partly Cloudy
3:50 PM 44.6 °F 39.7 °F 33.8 °F 66% 29.65 in 6.2 mi SSW 9.2 mph - N/A   Mostly Cloudy
4:00 PM 45 °F - 34 °F 55% 29.66 in 19 mi SSW 9.2 mph - -   Partly Cloudy
4:50 PM 44.6 °F 40.7 °F 35.6 °F 71% 29.65 in - South 6.9 mph - N/A   Clear
5:00 PM 45 °F - 35 °F 59% 29.67 in 19 mi South 6.9 mph - -   Partly Cloudy
5:50 PM 44.6 °F 40.2 °F 37.4 °F 76% 29.65 in - South 8.1 mph - N/A   Clear
6:00 PM 44 °F - 36 °F 66% 29.67 in 19 mi South 8.1 mph - -   Scattered Clouds
6:31 PM 44.6 °F 40.2 °F 37.4 °F 76% 29.68 in 3.1 mi SSW 8.1 mph - N/A Rain Rain Showers
6:39 PM 42.8 °F 34.3 °F 39.2 °F 87% 29.68 in 2.5 mi West 19.6 mph 31.1 mph N/A Rain Rain Showers
6:50 PM 41.0 °F 32.8 °F 37.4 °F 87% 29.71 in 3.1 mi WSW 16.1 mph - N/A Rain Rain Showers
7:00 PM 42 °F - 37 °F 78% 29.73 in 3 mi WSW 16.1 mph - - Rain Heavy Rain Showers
7:26 PM 41.0 °F 33.5 °F 37.4 °F 87% 29.71 in 6.2 mi WSW 13.8 mph - N/A Rain Light Rain Showers
7:50 PM 41.0 °F 34.7 °F 37.4 °F 87% 29.71 in 6.2 mi WSW 10.4 mph - N/A Rain Light Rain Showers
8:00 PM 41 °F - 37 °F 81% 29.73 in 9 mi WSW 10.4 mph - - Rain Light Rain Showers
8:50 PM 41.0 °F 36.4 °F 37.4 °F 87% 29.74 in - WSW 6.9 mph - N/A   Clear
9:00 PM 40 °F - 37 °F 85% 29.76 in 19 mi WSW 6.9 mph - - Rain Light Rain Showers
9:50 PM 39.2 °F 33.6 °F 37.4 °F 93% 29.77 in - WSW 8.1 mph - N/A   Clear
10:00 PM 39 °F - 37 °F 88% 29.79 in 22 mi WSW 8.1 mph - -   Mostly Cloudy
10:50 PM 37.4 °F 32.1 °F 35.6 °F 93% 29.83 in - WSW 6.9 mph - N/A   Clear
11:00 PM 38 °F - 36 °F 87% 29.83 in 25 mi WSW 6.9 mph - -   Scattered Clouds
11:50 PM 37.4 °F 32.8 °F 35.6 °F 93% 29.86 in - WSW 5.8 mph - N/A   Clear